Wink, TX

3:02 AM CDT on May 30, 2017 (GMT -0500)
Winkler County

Weather History for KINK - February, 2014

Change the Weather History Date:

Saturday, February 8, 2014

  Actual Average Record
Temperature  
Mean Temperature 49 °F -  
Max Temperature 71 °F 62 °F 85 °F (1963)
Min Temperature 27 °F 28 °F 8 °F (1971)
Degree Days  
Heating Degree Days 16    
Moisture  
Dew Point 23 °F    
Average Humidity 45    
Maximum Humidity 81    
Minimum Humidity 14    
Precipitation  
Precipitation 0.00 in - - ()
Sea Level Pressure  
Sea Level Pressure 30.03 in    
Wind  
Wind Speed 7 mph (West)    
Max Wind Speed 16 mph    
Max Gust Speed 22 mph    
Visibility 10 miles    
Events      
Averages and records for this station are not official NWS values.
T = Trace of Precipitation, MM = Missing Value Source: NWS Daily Summary

Daily Weather History Graph

Daily Weather History Graph

Search for Another Location

Airport or City:

Trip Planner

Search our weather history database for the weather conditions in past years. The results will help you decide how hot, cold, wet, or windy it might be!

Date:

Astronomy

Feb. 08, 2014 Rise Set
Actual Time 7:40 AM CST 6:33 PM CST
Civil Twilight 7:15 AM CST 6:58 PM CST
Nautical Twilight 6:46 AM CST 7:27 PM CST
Astronomical Twilight 6:18 AM CST 7:56 PM CST
Moon 1:34 PM CST (2/8) 2:50 AM CST (2/8)
Length of Visible Light 11h 43m
Length of Day
10h 52m
Waxing Gibbous, 69% of the Moon is Illuminated
Feb 8
Waxing Gibbous
Feb 14
Full
Feb 22
Last Quarter
Mar 1
New
Mar 8
First Quarter

Hourly Weather History & Observations

Time (CST) Temp. Windchill Dew Point Humidity Pressure Visibility Wind Dir Wind Speed Gust Speed Precip Events Conditions
12:53 AM 35.1 °F 30.1 °F 24.1 °F 64% 30.06 in 10.0 mi East 5.8 mph - N/A   Clear
1:53 AM 33.1 °F 28.7 °F 24.1 °F 70% 30.04 in 10.0 mi ESE 4.6 mph - N/A   Clear
2:53 AM 33.1 °F 28.7 °F 24.1 °F 70% 30.02 in 10.0 mi ESE 4.6 mph - N/A   Clear
3:53 AM 34.0 °F 28.0 °F 25.0 °F 70% 30.01 in 10.0 mi SSE 6.9 mph - N/A   Clear
4:53 AM 33.1 °F 27.7 °F 25.0 °F 72% 30.03 in 10.0 mi NNE 5.8 mph - N/A   Clear
5:53 AM 30.9 °F 27.5 °F 24.1 °F 76% 30.02 in 10.0 mi SSE 3.5 mph - N/A   Clear
6:53 AM 28.0 °F 22.8 °F 21.9 °F 78% 30.05 in 10.0 mi NE 4.6 mph - N/A   Clear
7:53 AM 27.0 °F - 21.9 °F 81% 30.09 in 10.0 mi Calm Calm - N/A   Clear
8:53 AM 33.1 °F 27.7 °F 25.0 °F 72% 30.10 in 10.0 mi North 5.8 mph - N/A   Clear
9:53 AM 39.0 °F - 26.1 °F 60% 30.09 in 10.0 mi Calm Calm - N/A   Clear
10:53 AM 48.9 °F - 28.0 °F 44% 30.08 in 10.0 mi NNW 4.6 mph - N/A   Clear
11:53 AM 62.1 °F - 28.0 °F 28% 30.06 in 10.0 mi West 13.8 mph 20.7 mph N/A   Clear
12:53 PM 66.0 °F - 24.1 °F 20% 30.03 in 10.0 mi West 16.1 mph 21.9 mph N/A   Clear
1:53 PM 66.9 °F - 21.9 °F 18% 30.00 in 10.0 mi West 16.1 mph - N/A   Clear
2:53 PM 69.1 °F - 18.0 °F 14% 29.98 in 10.0 mi WNW 12.7 mph - N/A   Clear
3:53 PM 70.0 °F - 19.0 °F 14% 29.97 in 10.0 mi West 11.5 mph - N/A   Clear
4:53 PM 71.1 °F - 19.0 °F 14% 29.98 in 10.0 mi WNW 12.7 mph - N/A   Clear
5:53 PM 69.1 °F - 19.9 °F 15% 29.98 in 10.0 mi West 9.2 mph - N/A   Clear
6:53 PM 60.1 °F - 21.0 °F 22% 30.01 in 10.0 mi West 8.1 mph - N/A   Clear
7:53 PM 55.9 °F - 21.0 °F 26% 30.05 in 10.0 mi WSW 6.9 mph - N/A   Clear
8:53 PM 53.1 °F - 21.9 °F 30% 30.04 in 10.0 mi West 6.9 mph - N/A   Clear
9:53 PM 46.9 °F - 23.0 °F 39% 30.06 in 10.0 mi SW 10.4 mph - N/A   Clear
10:53 PM 50.0 °F - 23.0 °F 35% 30.04 in 10.0 mi WSW 9.2 mph - N/A   Clear
11:53 PM 48.0 °F - 23.0 °F 37% 30.01 in 10.0 mi WSW 9.2 mph - N/A   Clear